User: anonymous   Login
Location: Byszew
(52.1813°N, 19.2693°E)
Time: 10:09:11
(UTC+00:00)
Language:

ASTEX 1 - Orbit

View from above orbital plane
View from above orbital plane
View from above satellite
View from above satellite

Ground track
Ground track

The orbit data is extracted from the following two-line orbital elements,

1 05560U 71089A   21131.88473554  .00000066  00000-0  18063-4 0  9997
2 05560  92.7142 302.7020 0013904 263.5586  96.4035 14.48128972607050
Epoch (UTC): 11 May 2021 21:14:01
Eccentricity: 0.0013904
inclination: 92.7142°
perigee height: 722 km
apogee height: 741 km
right ascension of ascending node: 302.7020°
argument of perigee: 263.5586°
revolutions per day: 14.48128972
mean anomaly at epoch: 96.4035°
orbit number at epoch: 60705

The dashed part of the orbit path shows where the satellite is in the earth's shadow,  

DLR